User: anonymous   Login
Location: Macksville High School
(37.9611°N, 99.9654°W)
Time: 20:02:49
(UTC+00:00)
Language:

CZ-4B R/B - Orbit

View from above orbital plane
View from above orbital plane
View from above satellite
View from above satellite

Ground track
Ground track

The orbit data is extracted from the following two-line orbital elements,

1 27432U 02024C   21110.56821671 -.00000018  00000-0  14568-4 0  9995
2 27432  99.0887 123.9980 0050951  31.1128  77.4726 14.14107017977056
Epoch (UTC): 20 April 2021 13:38:13
Eccentricity: 0.0050951
inclination: 99.0887°
perigee height: 808 km
apogee height: 882 km
right ascension of ascending node: 123.9980°
argument of perigee: 31.1128°
revolutions per day: 14.14107017
mean anomaly at epoch: 77.4726°
orbit number at epoch: 97705

The dashed part of the orbit path shows where the satellite is in the earth's shadow,  

DLR